TimeCST,TemperatureF,Dew PointF,Humidity,Sea Level PressureIn,VisibilityMPH,Wind Direction,Wind SpeedMPH,Gust SpeedMPH,PrecipitationIn,Events,Conditions,WindDirDegrees,DateUTC
12:15 AM,35.6,28.4,75,29.92,7.0,Calm,Calm,-,N/A,,Overcast,0,2012-12-19 06:15:00
12:35 AM,35.6,28.4,75,29.91,7.0,North,4.6,-,N/A,,Overcast,360,2012-12-19 06:35:00
12:55 AM,35.6,28.4,75,29.91,7.0,Calm,Calm,-,N/A,,Overcast,0,2012-12-19 06:55:00
1:15 AM,35.6,28.4,75,29.92,7.0,Calm,Calm,-,N/A,,Overcast,0,2012-12-19 07:15:00
1:35 AM,35.6,28.4,75,29.94,7.0,Calm,Calm,-,N/A,,Overcast,0,2012-12-19 07:35:00
1:55 AM,35.6,28.4,75,29.95,7.0,Calm,Calm,-,N/A,,Overcast,0,2012-12-19 07:55:00
2:15 AM,35.6,28.4,75,29.95,7.0,Calm,Calm,-,N/A,,Overcast,0,2012-12-19 08:15:00
2:35 AM,35.6,28.4,75,29.94,7.0,Calm,Calm,-,N/A,,Overcast,0,2012-12-19 08:35:00
2:55 AM,35.6,28.4,75,29.95,7.0,Calm,Calm,-,N/A,,Mostly Cloudy,0,2012-12-19 08:55:00
3:15 AM,33.8,26.6,75,29.96,7.0,Calm,Calm,-,N/A,,Mostly Cloudy,0,2012-12-19 09:15:00
3:35 AM,33.8,26.6,75,29.97,5.0,Calm,Calm,-,N/A,,Haze,0,2012-12-19 09:35:00
3:55 AM,33.8,26.6,75,29.96,5.0,Calm,Calm,-,N/A,,Haze,0,2012-12-19 09:55:00
4:15 AM,33.8,26.6,75,29.96,5.0,Calm,Calm,-,N/A,,Haze,0,2012-12-19 10:15:00
4:35 AM,33.8,26.6,75,29.96,5.0,Calm,Calm,-,N/A,,Haze,0,2012-12-19 10:35:00
4:55 AM,33.8,26.6,75,29.97,5.0,Calm,Calm,-,N/A,,Haze,0,2012-12-19 10:55:00
5:15 AM,33.8,26.6,75,29.97,5.0,Calm,Calm,-,N/A,,Haze,0,2012-12-19 11:15:00
5:35 AM,33.8,26.6,75,29.97,5.0,Calm,Calm,-,N/A,,Haze,0,2012-12-19 11:35:00
5:55 AM,33.8,26.6,75,29.98,5.0,NNE,3.5,-,N/A,,Haze,30,2012-12-19 11:55:00
6:15 AM,33.8,26.6,75,29.98,5.0,Calm,Calm,-,N/A,,Haze,0,2012-12-19 12:15:00
6:35 AM,33.8,26.6,75,29.97,5.0,ENE,4.6,-,N/A,,Haze,60,2012-12-19 12:35:00
6:55 AM,33.8,26.6,75,29.98,5.0,ENE,4.6,-,N/A,,Haze,70,2012-12-19 12:55:00
7:15 AM,33.8,28.4,81,29.98,5.0,ENE,5.8,-,N/A,,Haze,60,2012-12-19 13:15:00
7:35 AM,33.8,28.4,81,29.98,5.0,ENE,9.2,-,N/A,,Haze,70,2012-12-19 13:35:00
7:55 AM,33.8,28.4,81,29.99,4.0,East,6.9,-,N/A,,Haze,90,2012-12-19 13:55:00
8:15 AM,33.8,28.4,81,30.00,4.0,East,8.1,-,N/A,,Haze,90,2012-12-19 14:15:00
8:35 AM,33.8,28.4,81,29.99,4.0,East,8.1,-,N/A,,Haze,80,2012-12-19 14:35:00
8:55 AM,35.6,28.4,75,30.00,4.0,ENE,5.8,-,N/A,,Haze,70,2012-12-19 14:55:00
9:15 AM,35.6,28.4,75,29.99,4.0,East,9.2,-,N/A,,Haze,80,2012-12-19 15:15:00
9:35 AM,35.6,28.4,75,30.01,4.0,East,9.2,-,N/A,,Haze,100,2012-12-19 15:35:00
9:55 AM,35.6,28.4,75,30.00,5.0,East,9.2,-,N/A,,Haze,100,2012-12-19 15:55:00
10:15 AM,35.6,28.4,75,30.00,5.0,East,10.4,-,N/A,,Haze,90,2012-12-19 16:15:00
10:35 AM,37.4,30.2,75,29.99,5.0,ESE,13.8,17.3,N/A,,Haze,110,2012-12-19 16:35:00
10:55 AM,37.4,30.2,75,29.98,5.0,ESE,12.7,-,N/A,,Haze,110,2012-12-19 16:55:00
11:15 AM,37.4,30.2,75,29.98,7.0,East,10.4,-,N/A,,Clear,100,2012-12-19 17:15:00
11:35 AM,37.4,30.2,75,29.96,7.0,East,10.4,-,N/A,,Scattered Clouds,90,2012-12-19 17:35:00
11:55 AM,37.4,30.2,75,29.93,7.0,East,15.0,-,N/A,,Scattered Clouds,90,2012-12-19 17:55:00
12:15 PM,39.2,30.2,70,29.93,7.0,East,12.7,-,N/A,,Scattered Clouds,90,2012-12-19 18:15:00
12:35 PM,39.2,30.2,70,29.94,7.0,East,8.1,-,N/A,,Scattered Clouds,100,2012-12-19 18:35:00
12:55 PM,39.2,30.2,70,29.93,7.0,East,6.9,-,N/A,,Scattered Clouds,80,2012-12-19 18:55:00
1:15 PM,39.2,30.2,70,29.95,7.0,Calm,Calm,-,N/A,,Scattered Clouds,0,2012-12-19 19:15:00
1:35 PM,39.2,30.2,70,29.94,7.0,East,5.8,-,N/A,,Mostly Cloudy,100,2012-12-19 19:35:00
1:55 PM,39.2,30.2,70,29.93,7.0,East,6.9,-,N/A,,Mostly Cloudy,90,2012-12-19 19:55:00
2:15 PM,39.2,30.2,70,29.90,7.0,ENE,9.2,-,N/A,,Mostly Cloudy,70,2012-12-19 20:15:00
2:35 PM,39.2,30.2,70,29.88,7.0,East,8.1,-,N/A,,Mostly Cloudy,80,2012-12-19 20:35:00
2:55 PM,39.2,32.0,75,29.87,7.0,East,10.4,16.1,N/A,,Mostly Cloudy,80,2012-12-19 20:55:00
3:15 PM,39.2,32.0,75,29.87,7.0,East,11.5,19.6,N/A,,Mostly Cloudy,80,2012-12-19 21:15:00
3:35 PM,39.2,32.0,75,29.86,7.0,East,12.7,17.3,N/A,,Overcast,80,2012-12-19 21:35:00
3:55 PM,39.2,32.0,75,29.85,7.0,East,12.7,21.9,N/A,,Overcast,80,2012-12-19 21:55:00
4:15 PM,39.2,30.2,70,29.85,7.0,East,15.0,-,N/A,,Overcast,80,2012-12-19 22:15:00
4:35 PM,39.2,32.0,75,29.84,10.0,East,12.7,-,N/A,,Mostly Cloudy,80,2012-12-19 22:35:00
4:55 PM,39.2,30.2,70,29.84,10.0,East,16.1,20.7,N/A,,Scattered Clouds,80,2012-12-19 22:55:00
5:15 PM,39.2,30.2,70,29.83,7.0,East,15.0,-,N/A,,Clear,80,2012-12-19 23:15:00
5:35 PM,37.4,30.2,75,29.82,7.0,East,15.0,20.7,N/A,,Scattered Clouds,80,2012-12-19 23:35:00
5:55 PM,37.4,32.0,81,29.81,7.0,East,13.8,20.7,N/A,,Mostly Cloudy,80,2012-12-19 23:55:00
6:15 PM,37.4,32.0,81,29.82,7.0,East,18.4,24.2,N/A,,Overcast,80,2012-12-20 00:15:00
6:35 PM,39.2,32.0,75,29.81,7.0,East,15.0,-,N/A,,Overcast,90,2012-12-20 00:35:00
6:55 PM,39.2,32.0,75,29.78,7.0,East,16.1,-,N/A,,Overcast,80,2012-12-20 00:55:00
7:15 PM,37.4,32.0,81,29.75,5.0,ENE,15.0,21.9,N/A,Rain,Rain,70,2012-12-20 01:15:00
7:35 PM,37.4,32.0,81,29.75,4.0,East,16.1,23.0,N/A,Rain,Light Rain,90,2012-12-20 01:35:00
7:55 PM,37.4,32.0,81,29.78,2.0,NNE,4.6,-,0.08,Rain,Rain,30,2012-12-20 01:55:00
8:15 PM,37.4,32.0,81,29.75,2.0,ENE,12.7,16.1,0.22,Snow,Light Snow,70,2012-12-20 02:15:00
8:35 PM,37.4,32.0,81,29.71,2.0,ENE,13.8,19.6,0.26,Rain,Rain,60,2012-12-20 02:35:00
8:55 PM,37.4,32.0,81,29.71,2.5,ENE,10.4,-,0.28,Rain,Light Rain,60,2012-12-20 02:55:00
9:15 PM,37.4,32.0,81,29.67,1.8,ENE,13.8,17.3,0.01,Rain,Light Rain,60,2012-12-20 03:15:00
9:35 PM,37.4,32.0,81,29.63,1.5,ENE,17.3,23.0,0.02,Rain,Light Rain,70,2012-12-20 03:35:00
9:55 PM,37.4,33.8,87,29.60,2.5,East,19.6,26.5,0.04,Rain,Light Rain,80,2012-12-20 03:55:00
10:15 PM,37.4,33.8,87,29.58,2.5,East,20.7,28.8,0.02,Rain,Light Rain,90,2012-12-20 04:15:00
10:35 PM,39.2,33.8,81,29.57,3.0,East,16.1,25.3,0.05,Rain,Light Rain,80,2012-12-20 04:35:00
10:55 PM,39.2,33.8,81,29.56,2.5,East,11.5,-,0.07,Rain,Light Rain,90,2012-12-20 04:55:00
11:15 PM,39.2,33.8,81,29.62,3.0,NW,13.8,-,N/A,Rain,Light Rain,310,2012-12-20 05:15:00
11:35 PM,39.2,33.8,81,29.56,3.0,ENE,9.2,-,0.09,Rain,Heavy Rain,60,2012-12-20 05:35:00
11:55 PM,39.2,33.8,81,29.53,3.0,NE,10.4,-,0.17,Rain,Rain,50,2012-12-20 05:55:00